TimeCET,TemperatureF,Dew PointF,Humidity,Sea Level PressureIn,VisibilityMPH,Wind Direction,Wind SpeedMPH,Gust SpeedMPH,PrecipitationIn,Events,Conditions,WindDirDegrees,DateUTC
12:00 AM,43,35,66,29.69,16,NE,4.5,,,,Clear,50,2014-03-01 23:00:00
12:00 AM,42.8,35.6,76,29.65,-9999.0,NE,3.5,-,N/A,,Clear,50,2014-03-01 23:00:00
12:30 AM,42.8,35.6,76,29.65,-9999.0,ENE,4.6,-,N/A,,Clear,60,2014-03-01 23:30:00
1:00 AM,41,34,69,29.69,16,ENE,6.7,,,,Clear,60,2014-03-02 00:00:00
1:00 AM,41.0,33.8,76,29.65,-9999.0,ENE,5.8,-,N/A,,Clear,60,2014-03-02 00:00:00
1:30 AM,39.2,33.8,81,29.65,-9999.0,ENE,6.9,-,N/A,,Clear,70,2014-03-02 00:30:00
2:00 AM,40,33,69,29.69,19,ENE,8.9,,,,Clear,60,2014-03-02 01:00:00
2:00 AM,39.2,33.8,81,29.65,-9999.0,NE,9.2,-,N/A,,Clear,50,2014-03-02 01:00:00
2:30 AM,35.6,30.2,81,29.65,6.2,ENE,8.1,-,N/A,,Partly Cloudy,70,2014-03-02 01:30:00
3:00 AM,34,30,81,29.69,19,ENE,8.9,,,,Scattered Clouds,60,2014-03-02 02:00:00
3:00 AM,35.6,30.2,81,29.65,-9999.0,ENE,8.1,-,N/A,,Clear,60,2014-03-02 02:00:00
3:30 AM,37.4,32.0,81,29.65,-9999.0,ENE,9.2,-,N/A,,Clear,70,2014-03-02 02:30:00
4:00 AM,37,31,73,29.68,19,ENE,8.9,,,,,60,2014-03-02 03:00:00
4:00 AM,37.4,32.0,81,29.62,-9999.0,NE,9.2,-,N/A,,Clear,50,2014-03-02 03:00:00
4:30 AM,35.6,30.2,81,29.62,-9999.0,ENE,8.1,-,N/A,,Clear,60,2014-03-02 03:30:00
5:00 AM,34,31,82,29.69,19,ENE,6.7,,,,,60,2014-03-02 04:00:00
5:00 AM,33.8,30.2,87,29.65,-9999.0,ENE,6.9,-,N/A,,Clear,70,2014-03-02 04:00:00
5:30 AM,33.8,30.2,87,29.65,-9999.0,ENE,8.1,-,N/A,,Clear,60,2014-03-02 04:30:00
6:00 AM,36,31,75,29.69,19,East,8.9,,,,Clear,80,2014-03-02 05:00:00
6:00 AM,35.6,32.0,87,29.65,-9999.0,ENE,9.2,-,N/A,,Clear,70,2014-03-02 05:00:00
6:30 AM,35.6,30.2,81,29.65,-9999.0,ENE,9.2,-,N/A,,Clear,70,2014-03-02 05:30:00
7:00 AM,35,31,78,29.70,16,ENE,6.7,,,,Clear,60,2014-03-02 06:00:00
7:00 AM,33.8,32.0,93,29.65,-9999.0,ENE,5.8,-,N/A,,Clear,70,2014-03-02 06:00:00
7:30 AM,33.8,30.2,87,29.65,-9999.0,ENE,9.2,-,N/A,,Clear,70,2014-03-02 06:30:00
8:00 AM,37,32,75,29.71,19,NW,2.2,,,,Clear,320,2014-03-02 07:00:00
8:00 AM,37.4,32.0,81,29.65,-9999.0,Variable,1.2,-,N/A,,Clear,0,2014-03-02 07:00:00
8:30 AM,37.4,33.8,87,29.68,-9999.0,Variable,2.3,-,N/A,,Clear,0,2014-03-02 07:30:00
9:00 AM,42,34,64,29.71,16,ESE,2.2,,,,Clear,120,2014-03-02 08:00:00
9:00 AM,41.0,33.8,76,29.68,-9999.0,Variable,1.2,-,N/A,,Clear,0,2014-03-02 08:00:00
9:30 AM,44.6,35.6,71,29.68,-9999.0,NE,4.6,-,N/A,,Clear,50,2014-03-02 08:30:00
10:00 AM,49,34,44,29.70,16,East,8.9,,,,Clear,80,2014-03-02 09:00:00
10:00 AM,50.0,33.8,54,29.68,-9999.0,East,9.2,-,N/A,,Clear,80,2014-03-02 09:00:00
10:30 AM,50.0,33.8,54,29.68,-9999.0,East,9.2,-,N/A,,Clear,80,2014-03-02 09:30:00
11:00 AM,53,34,36,29.69,16,ENE,4.5,,,,Clear,70,2014-03-02 10:00:00
11:00 AM,51.8,35.6,54,29.68,-9999.0,East,4.6,-,N/A,,Clear,90,2014-03-02 10:00:00
11:30 AM,53.6,33.8,47,29.68,-9999.0,Variable,3.5,-,N/A,,Clear,0,2014-03-02 10:30:00
12:00 PM,54,33,33,29.68,16,East,4.5,,,,Scattered Clouds,90,2014-03-02 11:00:00
12:00 PM,53.6,33.8,47,29.68,6.2,Variable,2.3,-,N/A,,Partly Cloudy,0,2014-03-02 11:00:00
12:31 PM,55.4,35.6,47,29.65,6.2,East,4.6,-,N/A,,Partly Cloudy,100,2014-03-02 11:31:00
1:00 PM,56,33,30,29.66,19,South,4.5,,,,Scattered Clouds,170,2014-03-02 12:00:00
1:00 PM,55.4,33.8,44,29.65,-9999.0,Variable,2.3,-,N/A,,Clear,0,2014-03-02 12:00:00
1:30 PM,57.2,33.8,41,29.65,-9999.0,East,5.8,-,N/A,,Clear,80,2014-03-02 12:30:00
2:00 PM,57,31,25,29.65,19,NNE,2.2,,,,Partly Cloudy,20,2014-03-02 13:00:00
2:00 PM,55.4,32.0,41,29.65,-9999.0,NNW,3.5,-,N/A,,Clear,340,2014-03-02 13:00:00
2:30 PM,57.2,33.8,41,29.62,-9999.0,South,3.5,-,N/A,,Clear,190,2014-03-02 13:30:00
3:00 PM,58,32,25,29.64,19,North,4.5,,,,Partly Cloudy,10,2014-03-02 14:00:00
3:00 PM,57.2,33.8,41,29.62,-9999.0,Variable,1.2,-,N/A,,Clear,0,2014-03-02 14:00:00
3:30 PM,57.2,33.8,41,29.62,-9999.0,SSE,4.6,-,N/A,,Clear,150,2014-03-02 14:30:00
4:00 PM,56,30,24,29.64,19,ENE,2.2,,,,Scattered Clouds,60,2014-03-02 15:00:00
4:00 PM,57.2,32.0,38,29.62,-9999.0,Variable,2.3,-,N/A,,Clear,0,2014-03-02 15:00:00
4:30 PM,55.4,30.2,38,29.62,-9999.0,North,3.5,-,N/A,,Clear,10,2014-03-02 15:30:00
5:00 PM,54,29,27,29.64,19,NE,4.5,,,,Scattered Clouds,40,2014-03-02 16:00:00
5:00 PM,55.4,30.2,38,29.62,-9999.0,NNE,3.5,-,N/A,,Clear,30,2014-03-02 16:00:00
5:30 PM,51.8,32.0,47,29.62,-9999.0,NE,4.6,-,N/A,,Clear,50,2014-03-02 16:30:00
6:00 PM,51,29,30,29.65,16,NE,4.5,,,,Clear,40,2014-03-02 17:00:00
6:00 PM,50.0,30.2,47,29.62,-9999.0,NNE,4.6,-,N/A,,Clear,30,2014-03-02 17:00:00
6:30 PM,50.0,30.2,47,29.62,-9999.0,North,5.8,-,N/A,,Clear,10,2014-03-02 17:30:00
7:00 PM,49,28,31,29.65,19,NNE,6.7,,,,Clear,20,2014-03-02 18:00:00
7:00 PM,50.0,28.4,43,29.62,-9999.0,North,8.1,-,N/A,,Clear,10,2014-03-02 18:00:00
7:30 PM,46.4,30.2,53,29.62,-9999.0,NE,6.9,-,N/A,,Clear,50,2014-03-02 18:30:00
8:00 PM,47,29,36,29.65,19,NE,6.7,,,,Clear,40,2014-03-02 19:00:00
8:00 PM,46.4,28.4,50,29.62,-9999.0,NE,6.9,-,N/A,,Clear,40,2014-03-02 19:00:00
8:30 PM,46.4,28.4,50,29.62,-9999.0,NE,5.8,-,N/A,,Clear,50,2014-03-02 19:30:00
9:00 PM,45,27,36,29.65,19,ENE,6.7,,,,Clear,60,2014-03-02 20:00:00
9:00 PM,44.6,28.4,53,29.62,-9999.0,ENE,5.8,-,N/A,,Clear,60,2014-03-02 20:00:00
9:30 PM,44.6,26.6,49,29.62,-9999.0,ENE,6.9,-,N/A,,Clear,60,2014-03-02 20:30:00
10:00 PM,44,26,36,29.64,19,NNE,6.7,,,,Clear,20,2014-03-02 21:00:00
10:00 PM,44.6,26.6,49,29.62,-9999.0,NNE,6.9,-,N/A,,Clear,30,2014-03-02 21:00:00
10:30 PM,41.0,26.6,57,29.59,-9999.0,Variable,2.3,-,N/A,,Clear,0,2014-03-02 21:30:00
11:00 PM,40,27,47,29.63,19,NE,4.5,,,,Clear,40,2014-03-02 22:00:00
11:00 PM,39.2,26.6,61,29.59,-9999.0,NE,6.9,-,N/A,,Clear,50,2014-03-02 22:00:00
11:30 PM,41.0,28.4,61,29.59,-9999.0,NE,8.1,-,N/A,,Clear,50,2014-03-02 22:30:00